owner,sensor,date,latitude,longitude,sea_surface_height_above_sea_level,qcFlag 
COMPS,ioos:station:USF.COMPS:ARP:1,2013-09-01T00:00:00Z,28.4330,-82.6670,-0.192,1111122 
COMPS,ioos:station:USF.COMPS:ARP:1,2013-09-01T00:06:00Z,28.4330,-82.6670,-0.183,1111122 
COMPS,ioos:station:USF.COMPS:ARP:1,2013-09-01T00:12:00Z,28.4330,-82.6670,-0.172,1111122 
COMPS,ioos:station:USF.COMPS:ARP:1,2013-09-01T00:18:00Z,28.4330,-82.6670,-0.16,1111122 
COMPS,ioos:station:USF.COMPS:ARP:1,2013-09-01T00:24:00Z,28.4330,-82.6670,-0.147,1111122 
COMPS,ioos:station:USF.COMPS:ARP:1,2013-09-01T00:30:00Z,28.4330,-82.6670,-0.133,1111122 
COMPS,ioos:station:USF.COMPS:ARP:1,2013-09-01T00:36:00Z,28.4330,-82.6670,-0.118,1111122 
COMPS,ioos:station:USF.COMPS:ARP:1,2013-09-01T00:42:00Z,28.4330,-82.6670,-0.103,1111122 
COMPS,ioos:station:USF.COMPS:ARP:1,2013-09-01T00:48:00Z,28.4330,-82.6670,-0.087,1111122 
COMPS,ioos:station:USF.COMPS:ARP:1,2013-09-01T00:54:00Z,28.4330,-82.6670,-0.069,1111122 
COMPS,ioos:station:USF.COMPS:ARP:1,2013-09-01T01:00:00Z,28.4330,-82.6670,-0.053,1111122 
COMPS,ioos:station:USF.COMPS:ARP:1,2013-09-01T01:06:00Z,28.4330,-82.6670,-0.034,1111122 
COMPS,ioos:station:USF.COMPS:ARP:1,2013-09-01T01:12:00Z,28.4330,-82.6670,-0.017,1111122 
COMPS,ioos:station:USF.COMPS:ARP:1,2013-09-01T01:18:00Z,28.4330,-82.6670,-0.002,1111122 
COMPS,ioos:station:USF.COMPS:ARP:1,2013-09-01T01:24:00Z,28.4330,-82.6670,0.016,1111122 
COMPS,ioos:station:USF.COMPS:ARP:1,2013-09-01T01:30:00Z,28.4330,-82.6670,0.034,1111122 
COMPS,ioos:station:USF.COMPS:ARP:1,2013-09-01T01:36:00Z,28.4330,-82.6670,0.053,1111122 
COMPS,ioos:station:USF.COMPS:ARP:1,2013-09-01T01:42:00Z,28.4330,-82.6670,0.072,1111122 
COMPS,ioos:station:USF.COMPS:ARP:1,2013-09-01T01:48:00Z,28.4330,-82.6670,0.089,1111122 
COMPS,ioos:station:USF.COMPS:ARP:1,2013-09-01T01:54:00Z,28.4330,-82.6670,0.105,1111122 
COMPS,ioos:station:USF.COMPS:ARP:1,2013-09-01T02:00:00Z,28.4330,-82.6670,0.121,1111122 
COMPS,ioos:station:USF.COMPS:ARP:1,2013-09-01T02:06:00Z,28.4330,-82.6670,0.139,1111122 
COMPS,ioos:station:USF.COMPS:ARP:1,2013-09-01T02:12:00Z,28.4330,-82.6670,0.155,1111122 
COMPS,ioos:station:USF.COMPS:ARP:1,2013-09-01T02:18:00Z,28.4330,-82.6670,0.171,1111122 
COMPS,ioos:station:USF.COMPS:ARP:1,2013-09-01T02:24:00Z,28.4330,-82.6670,0.186,1111122 
COMPS,ioos:station:USF.COMPS:ARP:1,2013-09-01T02:30:00Z,28.4330,-82.6670,0.199,1111122 
COMPS,ioos:station:USF.COMPS:ARP:1,2013-09-01T02:36:00Z,28.4330,-82.6670,0.212,1111122 
COMPS,ioos:station:USF.COMPS:ARP:1,2013-09-01T02:42:00Z,28.4330,-82.6670,0.224,1111122 
COMPS,ioos:station:USF.COMPS:ARP:1,2013-09-01T02:48:00Z,28.4330,-82.6670,0.234,1111122 
COMPS,ioos:station:USF.COMPS:ARP:1,2013-09-01T02:54:00Z,28.4330,-82.6670,0.247,1111122 
COMPS,ioos:station:USF.COMPS:ARP:1,2013-09-01T03:00:00Z,28.4330,-82.6670,0.254,1111122 
COMPS,ioos:station:USF.COMPS:ARP:1,2013-09-01T03:06:00Z,28.4330,-82.6670,0.263,1111122 
COMPS,ioos:station:USF.COMPS:ARP:1,2013-09-01T03:12:00Z,28.4330,-82.6670,0.272,1111122 
COMPS,ioos:station:USF.COMPS:ARP:1,2013-09-01T03:18:00Z,28.4330,-82.6670,0.277,1111122 
COMPS,ioos:station:USF.COMPS:ARP:1,2013-09-01T03:24:00Z,28.4330,-82.6670,0.284,1111122 
COMPS,ioos:station:USF.COMPS:ARP:1,2013-09-01T03:30:00Z,28.4330,-82.6670,0.296,1111122 
COMPS,ioos:station:USF.COMPS:ARP:1,2013-09-01T03:36:00Z,28.4330,-82.6670,0.301,1111122 
COMPS,ioos:station:USF.COMPS:ARP:1,2013-09-01T03:42:00Z,28.4330,-82.6670,0.308,1111122 
COMPS,ioos:station:USF.COMPS:ARP:1,2013-09-01T03:48:00Z,28.4330,-82.6670,0.31,1111122 
COMPS,ioos:station:USF.COMPS:ARP:1,2013-09-01T03:54:00Z,28.4330,-82.6670,0.31,1111122 
COMPS,ioos:station:USF.COMPS:ARP:1,2013-09-01T04:00:00Z,28.4330,-82.6670,0.306,1111122 
COMPS,ioos:station:USF.COMPS:ARP:1,2013-09-01T04:06:00Z,28.4330,-82.6670,0.305,1111122 
COMPS,ioos:station:USF.COMPS:ARP:1,2013-09-01T23:06:00Z,28.4330,-82.6670,-0.368,1111122 
COMPS,ioos:station:USF.COMPS:ARP:1,2013-09-01T23:18:00Z,28.4330,-82.6670,-0.372,1111122 
COMPS,ioos:station:USF.COMPS:ARP:1,2013-09-01T23:36:00Z,28.4330,-82.6670,-0.357,1111122 
COMPS,ioos:station:USF.COMPS:ARP:1,2013-09-01T23:48:00Z,28.4330,-82.6670,-0.34,1111122 
COMPS,ioos:station:USF.COMPS:ARP:1,2013-09-01T23:54:00Z,28.4330,-82.6670,-0.333,1111122 
COMPS,ioos:station:USF.COMPS:ARP:1,2013-09-02T00:00:00Z,28.4330,-82.6670,-0.325,1111122 
COMPS,ioos:station:USF.COMPS:ARP:1,2013-09-02T23:12:00Z,28.4330,-82.6670,-0.363,1111122 
COMPS,ioos:station:USF.COMPS:ARP:1,2013-09-03T23:12:00Z,28.4330,-82.6670,-0.323,1111122 
COMPS,ioos:station:USF.COMPS:ARP:1,2013-09-03T23:24:00Z,28.4330,-82.6670,-0.339,1111122 
COMPS,ioos:station:USF.COMPS:ARP:1,2013-09-03T23:48:00Z,28.4330,-82.6670,-0.371,1111122 
COMPS,ioos:station:USF.COMPS:ARP:1,2013-09-03T23:54:00Z,28.4330,-82.6670,-0.379,1111122 
COMPS,ioos:station:USF.COMPS:ARP:1,2013-09-04T00:00:00Z,28.4330,-82.6670,-0.386,1111122 
COMPS,ioos:station:USF.COMPS:ARP:1,2013-09-04T00:06:00Z,28.4330,-82.6670,-0.392,1111122 
COMPS,ioos:station:USF.COMPS:ARP:1,2013-09-04T00:12:00Z,28.4330,-82.6670,-0.398,1111122 
COMPS,ioos:station:USF.COMPS:ARP:1,2013-09-04T00:18:00Z,28.4330,-82.6670,-0.404,1111122 
COMPS,ioos:station:USF.COMPS:ARP:1,2013-09-04T00:30:00Z,28.4330,-82.6670,-0.411,1111122 
COMPS,ioos:station:USF.COMPS:ARP:1,2013-09-04T00:36:00Z,28.4330,-82.6670,-0.412,1111122 
COMPS,ioos:station:USF.COMPS:ARP:1,2013-09-04T02:00:00Z,28.4330,-82.6670,-0.271,1111122 
COMPS,ioos:station:USF.COMPS:ARP:1,2013-09-04T02:06:00Z,28.4330,-82.6670,-0.253,1111122 
COMPS,ioos:station:USF.COMPS:ARP:1,2013-09-04T02:42:00Z,28.4330,-82.6670,-0.121,1111122 
COMPS,ioos:station:USF.COMPS:ARP:1,2013-09-04T02:48:00Z,28.4330,-82.6670,-0.096,1111122 
COMPS,ioos:station:USF.COMPS:ARP:1,2013-09-04T03:00:00Z,28.4330,-82.6670,-0.043,1111122 
COMPS,ioos:station:USF.COMPS:ARP:1,2013-09-04T03:06:00Z,28.4330,-82.6670,-0.019,1111122 
COMPS,ioos:station:USF.COMPS:ARP:1,2013-09-04T03:12:00Z,28.4330,-82.6670,0.006,1111122 
COMPS,ioos:station:USF.COMPS:ARP:1,2013-09-04T03:18:00Z,28.4330,-82.6670,0.032,1111122 
COMPS,ioos:station:USF.COMPS:ARP:1,2013-09-04T03:24:00Z,28.4330,-82.6670,0.059,1111122 
COMPS,ioos:station:USF.COMPS:ARP:1,2013-09-04T03:36:00Z,28.4330,-82.6670,0.107,1111122 
COMPS,ioos:station:USF.COMPS:ARP:1,2013-09-04T03:48:00Z,28.4330,-82.6670,0.154,1111122 
COMPS,ioos:station:USF.COMPS:ARP:1,2013-09-04T04:00:00Z,28.4330,-82.6670,0.199,1111122 
COMPS,ioos:station:USF.COMPS:ARP:1,2013-09-04T04:06:00Z,28.4330,-82.6670,0.218,1111122 
COMPS,ioos:station:USF.COMPS:ARP:1,2013-09-04T04:18:00Z,28.4330,-82.6670,0.262,1111122 
COMPS,ioos:station:USF.COMPS:ARP:1,2013-09-04T04:30:00Z,28.4330,-82.6670,0.301,1111122 
COMPS,ioos:station:USF.COMPS:ARP:1,2013-09-04T04:36:00Z,28.4330,-82.6670,0.322,1111122 
COMPS,ioos:station:USF.COMPS:ARP:1,2013-09-04T04:54:00Z,28.4330,-82.6670,0.378,1111122 
COMPS,ioos:station:USF.COMPS:ARP:1,2013-09-04T05:00:00Z,28.4330,-82.6670,0.394,1111122 
COMPS,ioos:station:USF.COMPS:ARP:1,2013-09-04T05:06:00Z,28.4330,-82.6670,0.412,1111122 
COMPS,ioos:station:USF.COMPS:ARP:1,2013-09-04T05:12:00Z,28.4330,-82.6670,0.429,1111122 
COMPS,ioos:station:USF.COMPS:ARP:1,2013-09-04T05:24:00Z,28.4330,-82.6670,0.449,1111122 
COMPS,ioos:station:USF.COMPS:ARP:1,2013-09-04T06:00:00Z,28.4330,-82.6670,0.474,1111122 
COMPS,ioos:station:USF.COMPS:ARP:1,2013-09-04T06:06:00Z,28.4330,-82.6670,0.464,1111122 
COMPS,ioos:station:USF.COMPS:ARP:1,2013-09-04T06:48:00Z,28.4330,-82.6670,0.375,1111122 
COMPS,ioos:station:USF.COMPS:ARP:1,2013-09-04T06:54:00Z,28.4330,-82.6670,0.366,1111122 
COMPS,ioos:station:USF.COMPS:ARP:1,2013-09-04T07:00:00Z,28.4330,-82.6670,0.351,1111122 
COMPS,ioos:station:USF.COMPS:ARP:1,2013-09-04T07:12:00Z,28.4330,-82.6670,0.325,1111122 
COMPS,ioos:station:USF.COMPS:ARP:1,2013-09-04T07:24:00Z,28.4330,-82.6670,0.303,1111122 
COMPS,ioos:station:USF.COMPS:ARP:1,2013-09-04T07:48:00Z,28.4330,-82.6670,0.253,1111122 
COMPS,ioos:station:USF.COMPS:ARP:1,2013-09-04T08:06:00Z,28.4330,-82.6670,0.206,1111122 
COMPS,ioos:station:USF.COMPS:ARP:1,2013-09-04T08:24:00Z,28.4330,-82.6670,0.158,1111122 
COMPS,ioos:station:USF.COMPS:ARP:1,2013-09-04T08:30:00Z,28.4330,-82.6670,0.142,1111122 
COMPS,ioos:station:USF.COMPS:ARP:1,2013-09-04T08:36:00Z,28.4330,-82.6670,0.126,1111122 
COMPS,ioos:station:USF.COMPS:ARP:1,2013-09-04T08:42:00Z,28.4330,-82.6670,0.11,1111122 
COMPS,ioos:station:USF.COMPS:ARP:1,2013-09-04T08:48:00Z,28.4330,-82.6670,0.096,1111122 
COMPS,ioos:station:USF.COMPS:ARP:1,2013-09-04T08:54:00Z,28.4330,-82.6670,0.083,1111122 
COMPS,ioos:station:USF.COMPS:ARP:1,2013-09-04T09:30:00Z,28.4330,-82.6670,-0.012,1111122 
COMPS,ioos:station:USF.COMPS:ARP:1,2013-09-04T09:36:00Z,28.4330,-82.6670,-0.026,1111122 
COMPS,ioos:station:USF.COMPS:ARP:1,2013-09-04T09:42:00Z,28.4330,-82.6670,-0.04,1111122 
COMPS,ioos:station:USF.COMPS:ARP:1,2013-09-04T09:48:00Z,28.4330,-82.6670,-0.055,1111122 
COMPS,ioos:station:USF.COMPS:ARP:1,2013-09-04T09:54:00Z,28.4330,-82.6670,-0.072,1111122 
COMPS,ioos:station:USF.COMPS:ARP:1,2013-09-04T10:00:00Z,28.4330,-82.6670,-0.088,1111122 
COMPS,ioos:station:USF.COMPS:ARP:1,2013-09-04T10:06:00Z,28.4330,-82.6670,-0.102,1111122 
COMPS,ioos:station:USF.COMPS:ARP:1,2013-09-04T10:12:00Z,28.4330,-82.6670,-0.116,1111122 
COMPS,ioos:station:USF.COMPS:ARP:1,2013-09-04T10:18:00Z,28.4330,-82.6670,-0.129,1111122 
COMPS,ioos:station:USF.COMPS:ARP:1,2013-09-04T10:24:00Z,28.4330,-82.6670,-0.143,1111122 
COMPS,ioos:station:USF.COMPS:ARP:1,2013-09-04T10:30:00Z,28.4330,-82.6670,-0.157,1111122 
COMPS,ioos:station:USF.COMPS:ARP:1,2013-09-04T10:36:00Z,28.4330,-82.6670,-0.171,1111122 
COMPS,ioos:station:USF.COMPS:ARP:1,2013-09-04T10:48:00Z,28.4330,-82.6670,-0.195,1111122 
COMPS,ioos:station:USF.COMPS:ARP:1,2013-09-04T11:06:00Z,28.4330,-82.6670,-0.229,1111122 
COMPS,ioos:station:USF.COMPS:ARP:1,2013-09-04T11:12:00Z,28.4330,-82.6670,-0.24,1111122 
COMPS,ioos:station:USF.COMPS:ARP:1,2013-09-04T11:18:00Z,28.4330,-82.6670,-0.25,1111122 
COMPS,ioos:station:USF.COMPS:ARP:1,2013-09-04T11:42:00Z,28.4330,-82.6670,-0.288,1111122 
COMPS,ioos:station:USF.COMPS:ARP:1,2013-09-04T11:48:00Z,28.4330,-82.6670,-0.296,1111122 
COMPS,ioos:station:USF.COMPS:ARP:1,2013-09-04T11:54:00Z,28.4330,-82.6670,-0.302,1111122 
COMPS,ioos:station:USF.COMPS:ARP:1,2013-09-04T12:00:00Z,28.4330,-82.6670,-0.308,1111122 
COMPS,ioos:station:USF.COMPS:ARP:1,2013-09-04T12:06:00Z,28.4330,-82.6670,-0.313,1111122 
COMPS,ioos:station:USF.COMPS:ARP:1,2013-09-04T12:12:00Z,28.4330,-82.6670,-0.312,1111122 
COMPS,ioos:station:USF.COMPS:ARP:1,2013-09-04T12:18:00Z,28.4330,-82.6670,-0.308,1111122 
COMPS,ioos:station:USF.COMPS:ARP:1,2013-09-04T12:36:00Z,28.4330,-82.6670,-0.288,1111122 
COMPS,ioos:station:USF.COMPS:ARP:1,2013-09-04T12:42:00Z,28.4330,-82.6670,-0.276,1111122 
COMPS,ioos:station:USF.COMPS:ARP:1,2013-09-04T12:48:00Z,28.4330,-82.6670,-0.263,1111122 
COMPS,ioos:station:USF.COMPS:ARP:1,2013-09-04T12:54:00Z,28.4330,-82.6670,-0.249,1111122 
COMPS,ioos:station:USF.COMPS:ARP:1,2013-09-04T13:00:00Z,28.4330,-82.6670,-0.235,1111122 
COMPS,ioos:station:USF.COMPS:ARP:1,2013-09-04T13:06:00Z,28.4330,-82.6670,-0.219,1111122 
COMPS,ioos:station:USF.COMPS:ARP:1,2013-09-04T13:24:00Z,28.4330,-82.6670,-0.166,1111122 
COMPS,ioos:station:USF.COMPS:ARP:1,2013-09-04T13:30:00Z,28.4330,-82.6670,-0.146,1111122 
COMPS,ioos:station:USF.COMPS:ARP:1,2013-09-04T13:36:00Z,28.4330,-82.6670,-0.129,1111122 
COMPS,ioos:station:USF.COMPS:ARP:1,2013-09-04T13:42:00Z,28.4330,-82.6670,-0.109,1111122 
COMPS,ioos:station:USF.COMPS:ARP:1,2013-09-04T13:54:00Z,28.4330,-82.6670,-0.068,1111122 
COMPS,ioos:station:USF.COMPS:ARP:1,2013-09-04T14:06:00Z,28.4330,-82.6670,-0.023,1111122 
COMPS,ioos:station:USF.COMPS:ARP:1,2013-09-04T14:12:00Z,28.4330,-82.6670,0.0,1114422 
COMPS,ioos:station:USF.COMPS:ARP:1,2013-09-04T14:24:00Z,28.4330,-82.6670,0.045,1111122 
COMPS,ioos:station:USF.COMPS:ARP:1,2013-09-04T14:36:00Z,28.4330,-82.6670,0.092,1111122 
COMPS,ioos:station:USF.COMPS:ARP:1,2013-09-04T14:42:00Z,28.4330,-82.6670,0.114,1111122 
COMPS,ioos:station:USF.COMPS:ARP:1,2013-09-04T15:30:00Z,28.4330,-82.6670,0.31,1111122 
COMPS,ioos:station:USF.COMPS:ARP:1,2013-09-04T15:42:00Z,28.4330,-82.6670,0.359,1111122 
COMPS,ioos:station:USF.COMPS:ARP:1,2013-09-04T15:54:00Z,28.4330,-82.6670,0.406,1111122 
COMPS,ioos:station:USF.COMPS:ARP:1,2013-09-04T16:00:00Z,28.4330,-82.6670,0.433,1111122 
COMPS,ioos:station:USF.COMPS:ARP:1,2013-09-04T16:06:00Z,28.4330,-82.6670,0.456,1111122 
COMPS,ioos:station:USF.COMPS:ARP:1,2013-09-04T16:12:00Z,28.4330,-82.6670,0.478,1111122 
COMPS,ioos:station:USF.COMPS:ARP:1,2013-09-04T16:18:00Z,28.4330,-82.6670,0.497,1111122 
COMPS,ioos:station:USF.COMPS:ARP:1,2013-09-04T16:36:00Z,28.4330,-82.6670,0.556,1111122 
COMPS,ioos:station:USF.COMPS:ARP:1,2013-09-04T16:42:00Z,28.4330,-82.6670,0.571,1111122 
COMPS,ioos:station:USF.COMPS:ARP:1,2013-09-04T17:00:00Z,28.4330,-82.6670,0.611,1111122 
COMPS,ioos:station:USF.COMPS:ARP:1,2013-09-04T17:06:00Z,28.4330,-82.6670,0.619,1111122 
COMPS,ioos:station:USF.COMPS:ARP:1,2013-09-04T17:12:00Z,28.4330,-82.6670,0.626,1111122 
COMPS,ioos:station:USF.COMPS:ARP:1,2013-09-04T17:18:00Z,28.4330,-82.6670,0.635,1111122 
COMPS,ioos:station:USF.COMPS:ARP:1,2013-09-04T17:24:00Z,28.4330,-82.6670,0.639,1111122 
COMPS,ioos:station:USF.COMPS:ARP:1,2013-09-04T17:30:00Z,28.4330,-82.6670,0.642,1111122 
COMPS,ioos:station:USF.COMPS:ARP:1,2013-09-04T17:42:00Z,28.4330,-82.6670,0.635,1111122 
COMPS,ioos:station:USF.COMPS:ARP:1,2013-09-04T18:00:00Z,28.4330,-82.6670,0.604,1111122 
COMPS,ioos:station:USF.COMPS:ARP:1,2013-09-04T18:24:00Z,28.4330,-82.6670,0.553,1111122 
COMPS,ioos:station:USF.COMPS:ARP:1,2013-09-04T18:36:00Z,28.4330,-82.6670,0.524,1111122 
COMPS,ioos:station:USF.COMPS:ARP:1,2013-09-04T18:42:00Z,28.4330,-82.6670,0.511,1111122 
COMPS,ioos:station:USF.COMPS:ARP:1,2013-09-04T18:48:00Z,28.4330,-82.6670,0.495,1111122 
COMPS,ioos:station:USF.COMPS:ARP:1,2013-09-04T18:54:00Z,28.4330,-82.6670,0.482,1111122 
COMPS,ioos:station:USF.COMPS:ARP:1,2013-09-04T19:12:00Z,28.4330,-82.6670,0.44,1111122 
COMPS,ioos:station:USF.COMPS:ARP:1,2013-09-04T19:24:00Z,28.4330,-82.6670,0.407,1111122 
COMPS,ioos:station:USF.COMPS:ARP:1,2013-09-04T19:30:00Z,28.4330,-82.6670,0.393,1111122 
COMPS,ioos:station:USF.COMPS:ARP:1,2013-09-04T19:36:00Z,28.4330,-82.6670,0.378,1111122 
COMPS,ioos:station:USF.COMPS:ARP:1,2013-09-04T19:42:00Z,28.4330,-82.6670,0.362,1111122 
COMPS,ioos:station:USF.COMPS:ARP:1,2013-09-04T19:54:00Z,28.4330,-82.6670,0.331,1111122 
COMPS,ioos:station:USF.COMPS:ARP:1,2013-09-04T20:00:00Z,28.4330,-82.6670,0.314,1111122 
COMPS,ioos:station:USF.COMPS:ARP:1,2013-09-04T20:06:00Z,28.4330,-82.6670,0.297,1111122 
COMPS,ioos:station:USF.COMPS:ARP:1,2013-09-04T20:12:00Z,28.4330,-82.6670,0.28,1111122 
COMPS,ioos:station:USF.COMPS:ARP:1,2013-09-04T20:18:00Z,28.4330,-82.6670,0.264,1111122 
COMPS,ioos:station:USF.COMPS:ARP:1,2013-09-04T20:24:00Z,28.4330,-82.6670,0.249,1111122 
COMPS,ioos:station:USF.COMPS:ARP:1,2013-09-04T20:30:00Z,28.4330,-82.6670,0.233,1111122 
COMPS,ioos:station:USF.COMPS:ARP:1,2013-09-04T20:36:00Z,28.4330,-82.6670,0.216,1111122 
COMPS,ioos:station:USF.COMPS:ARP:1,2013-09-04T20:42:00Z,28.4330,-82.6670,0.2,1111122 
COMPS,ioos:station:USF.COMPS:ARP:1,2013-09-04T20:54:00Z,28.4330,-82.6670,0.168,1111122 
COMPS,ioos:station:USF.COMPS:ARP:1,2013-09-04T21:00:00Z,28.4330,-82.6670,0.151,1111122 
COMPS,ioos:station:USF.COMPS:ARP:1,2013-09-04T21:06:00Z,28.4330,-82.6670,0.132,1111122 
COMPS,ioos:station:USF.COMPS:ARP:1,2013-09-04T21:12:00Z,28.4330,-82.6670,0.113,1111122 
COMPS,ioos:station:USF.COMPS:ARP:1,2013-09-04T21:18:00Z,28.4330,-82.6670,0.102,1111122 
COMPS,ioos:station:USF.COMPS:ARP:1,2013-09-04T21:24:00Z,28.4330,-82.6670,0.086,1111122 
COMPS,ioos:station:USF.COMPS:ARP:1,2013-09-04T21:30:00Z,28.4330,-82.6670,0.059,1111122 
COMPS,ioos:station:USF.COMPS:ARP:1,2013-09-04T21:36:00Z,28.4330,-82.6670,0.04,1111122 
COMPS,ioos:station:USF.COMPS:ARP:1,2013-09-05T01:00:00Z,28.4330,-82.6670,-0.432,1111122 
COMPS,ioos:station:USF.COMPS:ARP:1,2013-09-05T02:00:00Z,28.4330,-82.6670,-0.431,1111122 
COMPS,ioos:station:USF.COMPS:ARP:1,2013-09-05T03:48:00Z,28.4330,-82.6670,-0.108,1111122 
COMPS,ioos:station:USF.COMPS:ARP:1,2013-09-05T04:06:00Z,28.4330,-82.6670,-0.002,1111122 
COMPS,ioos:station:USF.COMPS:ARP:1,2013-09-05T04:12:00Z,28.4330,-82.6670,0.033,1111122 
COMPS,ioos:station:USF.COMPS:ARP:1,2013-09-05T04:24:00Z,28.4330,-82.6670,0.103,1111122 
COMPS,ioos:station:USF.COMPS:ARP:1,2013-09-05T04:42:00Z,28.4330,-82.6670,0.196,1111122 
COMPS,ioos:station:USF.COMPS:ARP:1,2013-09-05T04:48:00Z,28.4330,-82.6670,0.224,1111122 
COMPS,ioos:station:USF.COMPS:ARP:1,2013-09-05T04:54:00Z,28.4330,-82.6670,0.287,1111122 
COMPS,ioos:station:USF.COMPS:ARP:1,2013-09-05T05:06:00Z,28.4330,-82.6670,0.299,1111122 
COMPS,ioos:station:USF.COMPS:ARP:1,2013-09-05T05:54:00Z,28.4330,-82.6670,0.446,1111122 
COMPS,ioos:station:USF.COMPS:ARP:1,2013-09-05T06:00:00Z,28.4330,-82.6670,0.457,1111122 
COMPS,ioos:station:USF.COMPS:ARP:1,2013-09-05T06:06:00Z,28.4330,-82.6670,0.462,1111122 
COMPS,ioos:station:USF.COMPS:ARP:1,2013-09-05T06:12:00Z,28.4330,-82.6670,0.467,1111122 
COMPS,ioos:station:USF.COMPS:ARP:1,2013-09-05T06:24:00Z,28.4330,-82.6670,0.473,1111122 
COMPS,ioos:station:USF.COMPS:ARP:1,2013-09-05T06:30:00Z,28.4330,-82.6670,0.475,1111122 
COMPS,ioos:station:USF.COMPS:ARP:1,2013-09-05T06:36:00Z,28.4330,-82.6670,0.478,1111122 
COMPS,ioos:station:USF.COMPS:ARP:1,2013-09-05T06:42:00Z,28.4330,-82.6670,0.473,1111122 
COMPS,ioos:station:USF.COMPS:ARP:1,2013-09-05T06:48:00Z,28.4330,-82.6670,0.461,1111122 
COMPS,ioos:station:USF.COMPS:ARP:1,2013-09-05T06:54:00Z,28.4330,-82.6670,0.45,1111122 
COMPS,ioos:station:USF.COMPS:ARP:1,2013-09-05T07:00:00Z,28.4330,-82.6670,0.439,1111122 
COMPS,ioos:station:USF.COMPS:ARP:1,2013-09-05T07:06:00Z,28.4330,-82.6670,0.418,1111122 
COMPS,ioos:station:USF.COMPS:ARP:1,2013-09-05T07:12:00Z,28.4330,-82.6670,0.402,1111122 
COMPS,ioos:station:USF.COMPS:ARP:1,2013-09-05T07:18:00Z,28.4330,-82.6670,0.39,1111122 
COMPS,ioos:station:USF.COMPS:ARP:1,2013-09-05T07:24:00Z,28.4330,-82.6670,0.373,1111122 
COMPS,ioos:station:USF.COMPS:ARP:1,2013-09-05T07:30:00Z,28.4330,-82.6670,0.361,1111122 
COMPS,ioos:station:USF.COMPS:ARP:1,2013-09-05T07:36:00Z,28.4330,-82.6670,0.35,1111122 
COMPS,ioos:station:USF.COMPS:ARP:1,2013-09-05T07:42:00Z,28.4330,-82.6670,0.337,1111122 
COMPS,ioos:station:USF.COMPS:ARP:1,2013-09-05T07:48:00Z,28.4330,-82.6670,0.32,1111122 
COMPS,ioos:station:USF.COMPS:ARP:1,2013-09-05T07:54:00Z,28.4330,-82.6670,0.306,1111122 
COMPS,ioos:station:USF.COMPS:ARP:1,2013-09-05T08:00:00Z,28.4330,-82.6670,0.29,1111122 
COMPS,ioos:station:USF.COMPS:ARP:1,2013-09-05T08:06:00Z,28.4330,-82.6670,0.275,1111122 
COMPS,ioos:station:USF.COMPS:ARP:1,2013-09-05T08:12:00Z,28.4330,-82.6670,0.259,1111122 
COMPS,ioos:station:USF.COMPS:ARP:1,2013-09-05T08:18:00Z,28.4330,-82.6670,0.245,1111122 
COMPS,ioos:station:USF.COMPS:ARP:1,2013-09-05T08:24:00Z,28.4330,-82.6670,0.23,1111122 
COMPS,ioos:station:USF.COMPS:ARP:1,2013-09-05T08:30:00Z,28.4330,-82.6670,0.211,1111122 
COMPS,ioos:station:USF.COMPS:ARP:1,2013-09-05T08:36:00Z,28.4330,-82.6670,0.196,1111122 
COMPS,ioos:station:USF.COMPS:ARP:1,2013-09-05T08:42:00Z,28.4330,-82.6670,0.183,1111122 
COMPS,ioos:station:USF.COMPS:ARP:1,2013-09-05T08:48:00Z,28.4330,-82.6670,0.166,1111122 
COMPS,ioos:station:USF.COMPS:ARP:1,2013-09-05T08:54:00Z,28.4330,-82.6670,0.149,1111122 
COMPS,ioos:station:USF.COMPS:ARP:1,2013-09-05T09:00:00Z,28.4330,-82.6670,0.887,1111122 
COMPS,ioos:station:USF.COMPS:ARP:1,2013-09-05T09:12:00Z,28.4330,-82.6670,0.098,1111122 
COMPS,ioos:station:USF.COMPS:ARP:1,2013-09-05T09:18:00Z,28.4330,-82.6670,0.082,1111122 
COMPS,ioos:station:USF.COMPS:ARP:1,2013-09-05T09:24:00Z,28.4330,-82.6670,0.068,1111122 
COMPS,ioos:station:USF.COMPS:ARP:1,2013-09-05T09:36:00Z,28.4330,-82.6670,0.03,1111122 
COMPS,ioos:station:USF.COMPS:ARP:1,2013-09-05T09:42:00Z,28.4330,-82.6670,0.013,1111122 
COMPS,ioos:station:USF.COMPS:ARP:1,2013-09-05T09:48:00Z,28.4330,-82.6670,-0.003,1111122 
COMPS,ioos:station:USF.COMPS:ARP:1,2013-09-05T09:54:00Z,28.4330,-82.6670,-0.019,1111122 
COMPS,ioos:station:USF.COMPS:ARP:1,2013-09-05T10:00:00Z,28.4330,-82.6670,-0.036,1111122 
COMPS,ioos:station:USF.COMPS:ARP:1,2013-09-05T10:06:00Z,28.4330,-82.6670,-0.052,1111122 
COMPS,ioos:station:USF.COMPS:ARP:1,2013-09-05T10:12:00Z,28.4330,-82.6670,-0.069,1111122 
COMPS,ioos:station:USF.COMPS:ARP:1,2013-09-05T10:18:00Z,28.4330,-82.6670,-0.085,1111122 
COMPS,ioos:station:USF.COMPS:ARP:1,2013-09-05T10:24:00Z,28.4330,-82.6670,-0.1,1111122 
COMPS,ioos:station:USF.COMPS:ARP:1,2013-09-05T10:30:00Z,28.4330,-82.6670,-0.114,1111122 
COMPS,ioos:station:USF.COMPS:ARP:1,2013-09-05T10:36:00Z,28.4330,-82.6670,-0.128,1111122 
COMPS,ioos:station:USF.COMPS:ARP:1,2013-09-05T10:42:00Z,28.4330,-82.6670,-0.142,1111122 
COMPS,ioos:station:USF.COMPS:ARP:1,2013-09-05T10:48:00Z,28.4330,-82.6670,-0.156,1111122 
COMPS,ioos:station:USF.COMPS:ARP:1,2013-09-05T10:54:00Z,28.4330,-82.6670,-0.17,1111122 
COMPS,ioos:station:USF.COMPS:ARP:1,2013-09-05T11:00:00Z,28.4330,-82.6670,-0.184,1111122 
COMPS,ioos:station:USF.COMPS:ARP:1,2013-09-05T11:06:00Z,28.4330,-82.6670,-0.197,1111122 
COMPS,ioos:station:USF.COMPS:ARP:1,2013-09-05T11:12:00Z,28.4330,-82.6670,-0.21,1111122 
COMPS,ioos:station:USF.COMPS:ARP:1,2013-09-05T11:18:00Z,28.4330,-82.6670,-0.222,1111122 
COMPS,ioos:station:USF.COMPS:ARP:1,2013-09-05T11:24:00Z,28.4330,-82.6670,-0.234,1111122 
COMPS,ioos:station:USF.COMPS:ARP:1,2013-09-05T11:30:00Z,28.4330,-82.6670,-0.246,1111122 
COMPS,ioos:station:USF.COMPS:ARP:1,2013-09-05T11:36:00Z,28.4330,-82.6670,-0.258,1111122 
COMPS,ioos:station:USF.COMPS:ARP:1,2013-09-05T11:42:00Z,28.4330,-82.6670,-0.268,1111122 
COMPS,ioos:station:USF.COMPS:ARP:1,2013-09-05T11:48:00Z,28.4330,-82.6670,-0.277,1111122 
COMPS,ioos:station:USF.COMPS:ARP:1,2013-09-05T11:54:00Z,28.4330,-82.6670,-0.286,1111122 
COMPS,ioos:station:USF.COMPS:ARP:1,2013-09-05T12:00:00Z,28.4330,-82.6670,-0.296,1111122 
COMPS,ioos:station:USF.COMPS:ARP:1,2013-09-05T12:06:00Z,28.4330,-82.6670,-0.305,1111122 
COMPS,ioos:station:USF.COMPS:ARP:1,2013-09-05T12:12:00Z,28.4330,-82.6670,-0.305,1111122 
COMPS,ioos:station:USF.COMPS:ARP:1,2013-09-05T12:18:00Z,28.4330,-82.6670,-0.322,1111122 
COMPS,ioos:station:USF.COMPS:ARP:1,2013-09-05T12:30:00Z,28.4330,-82.6670,-0.339,1111122 
COMPS,ioos:station:USF.COMPS:ARP:1,2013-09-05T12:36:00Z,28.4330,-82.6670,-0.347,1111122 
COMPS,ioos:station:USF.COMPS:ARP:1,2013-09-05T12:42:00Z,28.4330,-82.6670,-0.353,1111122 
COMPS,ioos:station:USF.COMPS:ARP:1,2013-09-05T12:48:00Z,28.4330,-82.6670,-0.36,1111122 
COMPS,ioos:station:USF.COMPS:ARP:1,2013-09-05T12:54:00Z,28.4330,-82.6670,-0.365,1111122 
COMPS,ioos:station:USF.COMPS:ARP:1,2013-09-05T13:00:00Z,28.4330,-82.6670,-0.371,1111122 
COMPS,ioos:station:USF.COMPS:ARP:1,2013-09-05T13:06:00Z,28.4330,-82.6670,-0.373,1111122 
COMPS,ioos:station:USF.COMPS:ARP:1,2013-09-05T13:12:00Z,28.4330,-82.6670,-0.367,1111122 
COMPS,ioos:station:USF.COMPS:ARP:1,2013-09-05T13:18:00Z,28.4330,-82.6670,-0.363,1111122 
COMPS,ioos:station:USF.COMPS:ARP:1,2013-09-05T13:24:00Z,28.4330,-82.6670,-0.359,1111122 
COMPS,ioos:station:USF.COMPS:ARP:1,2013-09-05T13:30:00Z,28.4330,-82.6670,-0.349,1111122 
COMPS,ioos:station:USF.COMPS:ARP:1,2013-09-05T13:36:00Z,28.4330,-82.6670,-0.339,1111122 
COMPS,ioos:station:USF.COMPS:ARP:1,2013-09-05T13:42:00Z,28.4330,-82.6670,-0.327,1111122 
COMPS,ioos:station:USF.COMPS:ARP:1,2013-09-05T13:48:00Z,28.4330,-82.6670,-0.316,1111122 
COMPS,ioos:station:USF.COMPS:ARP:1,2013-09-05T13:54:00Z,28.4330,-82.6670,-0.3,1111122 
COMPS,ioos:station:USF.COMPS:ARP:1,2013-09-05T17:06:00Z,28.4330,-82.6670,0.525,1111122 
COMPS,ioos:station:USF.COMPS:ARP:1,2013-09-05T17:18:00Z,28.4330,-82.6670,0.57,1111122 
COMPS,ioos:station:USF.COMPS:ARP:1,2013-09-05T17:30:00Z,28.4330,-82.6670,0.609,1111122 
COMPS,ioos:station:USF.COMPS:ARP:1,2013-09-05T17:42:00Z,28.4330,-82.6670,0.639,1111122 
COMPS,ioos:station:USF.COMPS:ARP:1,2013-09-05T17:54:00Z,28.4330,-82.6670,0.661,1111122 